11.1,22.3,1013.5,202105230030
10.5,31.0,1013.4,202105230100
10.5,32.7,1013.5,202105230130
10.3,31.2,1013.9,202105230200
9.0,59.2,1014.3,202105230230
8.6,77.1,1014.5,202105230300
8.2,98.4,1014.7,202105230330
7.5,99.9,1015.1,202105230400
7.4,99.9,1015.4,202105230430
6.9,99.9,1015.7,202105230500
6.8,99.9,1016.1,202105230530
6.6,99.9,1016.7,202105230600
6.7,99.9,1016.8,202105230630
6.9,99.9,1017.2,202105230700
6.8,99.9,1017.5,202105230730
7.5,99.9,1017.9,202105230800
7.6,99.9,1018.1,202105230830
8.1,99.9,1018.2,202105230900
8.2,99.9,1018.7,202105230930
8.8,99.9,1018.7,202105231000
9.8,91.0,1018.7,202105231030
10.0,82.0,1018.7,202105231100
10.7,61.5,1019.2,202105231130
8.9,99.9,1018.8,202105231200
9.4,99.9,1018.5,202105231230
10.8,84.4,1018.5,202105231300
11.0,53.2,1018.3,202105231330
11.5,42.5,1018.4,202105231400
11.9,45.9,1018.4,202105231430
12.5,42.7,1018.3,202105231500
12.5,37.0,1018.2,202105231530
12.3,50.2,1018.1,202105231600
12.1,58.5,1018.0,202105231630
12.3,62.9,1018.0,202105231700
12.6,27.3,1017.9,202105231730
12.3,24.5,1018.0,202105231800
12.0,26.7,1018.1,202105231830
11.9,38.0,1018.5,202105231900
11.8,38.5,1018.6,202105231930
11.6,22.8,1018.7,202105232000
11.4,28.2,1018.8,202105232030
11.5,21.8,1018.9,202105232100
11.0,20.8,1018.5,202105232130
11.1,19.7,1018.6,202105232200
10.3,32.7,1018.3,202105232230
9.5,50.0,1018.3,202105232300
9.2,63.9,1018.3,202105232330
8.8,72.8,1018.2,202105240000
8.9,73.4,1017.6,202105240030
8.6,78.5,1017.1,202105240100
8.5,81.8,1016.7,202105240130
8.4,82.4,1016.5,202105240200
8.3,79.0,1015.9,202105240230
8.1,76.3,1015.5,202105240300
8.3,74.3,1015.4,202105240330
7.7,84.5,1015.2,202105240400
7.4,87.0,1015.2,202105240430
7.3,95.0,1015.2,202105240500
7.5,92.5,1015.2,202105240530
7.5,92.5,1014.9,202105240600
8.7,89.8,1014.4,202105240630
9.9,67.6,1014.6,202105240700
10.5,60.4,1014.4,202105240730
10.5,64.4,1014.3,202105240800
10.7,66.0,1014.6,202105240830
10.8,64.0,1014.3,202105240900
10.9,69.4,1014.1,202105240930
11.8,68.9,1013.9,202105241000
12.1,67.9,1013.9,202105241030
12.9,67.5,1013.6,202105241100
13.3,56.9,1013.1,202105241130
13.5,55.9,1012.5,202105241200
15.2,39.5,1012.1,202105241230
15.2,42.4,1011.7,202105241300
15.1,43.7,1011.6,202105241330
15.1,44.4,1011.8,202105241400
14.9,48.5,1012.0,202105241430
13.8,63.2,1012.1,202105241500
13.2,69.1,1012.5,202105241530
13.1,72.0,1012.7,202105241600
12.4,75.3,1012.8,202105241630
11.9,73.4,1013.0,202105241700
11.3,89.4,1013.1,202105241730
11.3,98.8,1013.5,202105241800
10.0,99.9,1013.5,202105241830
9.8,99.9,1013.4,202105241900
9.7,99.9,1013.7,202105241930
9.6,99.9,1013.9,202105242000
9.5,99.9,1014.0,202105242030
9.4,99.9,1014.0,202105242100
9.2,99.9,1014.0,202105242130
9.2,99.9,1014.1,202105242200
9.1,99.9,1014.5,202105242230
9.2,99.9,1015.1,202105242300
8.6,99.9,1015.4,202105242330
7.6,99.9,1015.8,202105250000
